STARLINK-11176, 60060

Orbit data source: Space-Track

STARLINK-11176, 60060 is a payload satellite owned by SpaceX/Seattle (US) in LEO that was launched on Wed, 19 Jun 2024 UTC via an FALCON 9 launch vehicle from the Air Force Western Test Range (AFWTR). Payload-class satellites include a variety of spacecraft equipped with specific instruments for various scientific and technological missions. These include communications satellites like Starlink; space stations such as the ISS; scientific satellites like the Hubble; Earth observation satellites from companies like Planet Labs, Umbra, and HawkEye 360; GPS; miniature CubeSats for education and research; and military/defense satellites.

Loading next visibility...
Identifier
60060, 2024-113B
Orbit
LEO
Country
Flag of USUS
Related business
Manufacturer
SpaceX/Seattle
Mission
Operational Commercial Communications
Bus & Motor
STARLINK V2MD, Unknown motor
Mass
960 kg wet, ~910 kg dry
Launch date (UTC)
2024-06-19 (2 years ago)
Launch vehicle
FALCON 9
Launch site
Air Force Western Test Range (AFWTR)
Object type
Payload
Rocket body
Debris
Shape & HBR
Box + 2 Pan, 18.1 m
Radar Cross Section
36.964 m², Large (>1 m²)

Expand to show TLE details & history
Last TLE update: 12 hours ago

TLE from 12 hours ago
0 STARLINK-11176
1 60060U 24113B   26171.34664719 -.00001285  00000-0 -57556-5 0  9991
2 60060  53.1587  45.2257 0000764  83.9414 276.1691 15.69698839115681
Epoch: 2026-06-20T08:19Z
TLE epoch observation values (Epoch: 2026-06-20T08:19:10.317Z)
Latitude
-0°
Longitude
11.87013°
Altitude
360.618 km
Speed
7.694 km/s
True Right ascension
03h 00m 54s
True Declination
0° 00' 00"
Sunlit
Object was in daylight at epoch
Visualization orbit readout
Latitude
Unknown
Longitude
Unknown
Altitude
Unknown
Speed
Unknown
Apparent Right ascension
Unknown
Apparent Declination
Unknown
Sunlit
N/A
Visualization observer readout
Local Sidereal Time
07:21:19
Azimuth
Unknown
Elevation
Unknown
Doppler factor
Unknown
Orbital elements
Apogee altitude
360.534 km
Perigee altitude
359.505 km
Semi-major axis
6,738.157 km
Eccentricity
0.00008
Inclination
53.1587°
RAAN
45.2257°
Arg. of periapsis
83.9414°
True anomaly
276.1604°
Mean anomaly
276.1691°
Eccentric anomaly
276.16475°
Mean motion
3.92402 °/min
Orbital period
91.74 mins
BSTAR
-0.0000057556
Loading maneuver chart data...
Computing Atmospheric mass density...
Loading historical data...
Loading historical data...
Loading historical data...
Loading historical data...
Loading historical data...
Loading historical data...
Loading historical data...

Documentation

Showing up to 5 results
|